Location: Brantford
(43.1330°N, 80.2670°W)
Time: 08:31:41
(UTC-05:00)

A-11 Canister half - Visible Passes

Search period start: 17 November 2019 00:00
Search period end: 27 November 2019 00:00
Orbit: 1514 x 1686 km, 47.2° (Epoch: 16 November)

Date Brightness Start Highest point End Pass type
(mag) Time Alt. Az. Time Alt. Az. Time Alt. Az.
17 Nov 9.5 17:40:17 10° SSW 17:49:48 50° SE 17:58:26 14° ENE visible
17 Nov 9.0 19:44:21 10° WSW 19:54:34 83° NNW 19:56:38 63° ENE visible
17 Nov 10.4 21:50:11 10° W 21:54:50 32° WNW 21:54:50 32° WNW visible
18 Nov 9.6 17:17:30 10° SSW 17:26:55 48° SE 17:36:27 10° ENE visible
18 Nov 9.1 19:21:24 10° WSW 19:31:35 85° NNW 19:34:59 49° ENE visible
18 Nov 10.0 21:27:11 10° W 21:33:11 41° WNW 21:33:11 41° WNW visible
19 Nov 9.1 18:58:26 10° WSW 19:08:36 87° NNW 19:13:19 39° ENE visible
19 Nov 9.6 21:04:11 10° W 21:11:31 51° WNW 21:11:31 51° WNW visible
20 Nov 9.1 18:35:29 10° WSW 18:45:38 89° NNW 18:51:38 30° ENE visible
20 Nov 9.3 20:41:11 10° W 20:49:49 63° NW 20:49:49 63° NW visible
20 Nov 11.1 22:46:47 10° WNW 22:48:00 15° WNW 22:48:00 15° WNW visible
21 Nov 9.1 18:12:32 10° WSW 18:22:40 89° SSE 18:29:56 23° ENE visible
21 Nov 9.1 20:18:11 10° W 20:28:07 70° N 20:28:07 70° N visible
21 Nov 10.8 22:23:47 10° WNW 22:26:19 20° WNW 22:26:19 20° WNW visible
22 Nov 9.2 17:49:36 10° WSW 17:59:42 86° SSE 18:08:13 17° ENE visible
22 Nov 9.1 19:55:11 10° W 20:05:21 70° N 20:06:25 66° NE visible
22 Nov 10.5 22:00:49 10° WNW 22:04:36 27° WNW 22:04:36 27° WNW visible
23 Nov 9.2 17:26:40 10° WSW 17:36:44 84° SSE 17:46:31 12° ENE visible
23 Nov 9.1 19:32:11 10° W 19:42:20 71° N 19:44:42 56° NE visible
23 Nov 10.2 21:37:50 10° WNW 21:42:54 35° WNW 21:42:54 35° WNW visible
24 Nov 9.3 17:03:46 10° WSW 17:13:46 81° SSE 17:24:00 10° ENE visible
24 Nov 9.2 19:09:11 10° W 19:19:20 71° N 19:23:00 45° ENE visible
24 Nov 9.9 21:14:52 10° WNW 21:21:11 45° WNW 21:21:11 45° WNW visible
25 Nov 9.2 18:46:12 10° W 18:56:20 71° N 19:01:18 35° ENE visible
25 Nov 9.5 20:51:53 10° WNW 20:59:30 57° WNW 20:59:30 57° WNW visible
25 Nov 11.3 22:57:16 10° WNW 22:57:41 11° WNW 22:57:41 11° WNW visible
26 Nov 9.2 18:23:13 10° W 18:33:19 72° N 18:39:37 27° ENE visible
26 Nov 9.2 20:28:55 10° WNW 20:37:49 71° NW 20:37:49 71° NW visible
26 Nov 11.0 22:34:17 10° WNW 22:36:01 16° WNW 22:36:01 16° WNW visible
